STARLINK-11739, 64374

Orbit data source: Space-Track

STARLINK-11739, 64374 is a payload satellite owned by SpaceX/Seattle (US) in LEO that was launched on Fri, 13 Jun 2025 UTC via an FALCON 9 launch vehicle from the Air Force Eastern Test Range (AFETR). Payload-class satellites include a variety of spacecraft equipped with specific instruments for various scientific and technological missions. These include communications satellites like Starlink; space stations such as the ISS; scientific satellites like the Hubble; Earth observation satellites from companies like Planet Labs, Umbra, and HawkEye 360; GPS; miniature CubeSats for education and research; and military/defense satellites.

Loading next visibility...
Identifier
64374, 2025-127E
Orbit
LEO
Country
Flag of USUS
Related business
Manufacturer
SpaceX/Seattle
Mission
Operational Commercial Communications
Bus & Motor
STARLINK V2MD, Unknown motor
Mass
960 kg wet, ~910 kg dry
Launch date (UTC)
2025-06-13 (10 months ago)
Launch vehicle
FALCON 9
Launch site
Air Force Eastern Test Range (AFETR)
Object type
Payload
Rocket body
Debris
Shape & HBR
Box + 2 Pan, 18.1 m
Radar Cross Section
36.964 m², Large (>1 m²)

Expand to show TLE details & history
Last TLE update: 7 hours ago

TLE from 7 hours ago
0 STARLINK-11739
1 64374U 25127E   26095.56599326  .00078334  00000-0  60772-3 0  9998
2 64374  43.0002 282.1483 0002392 266.1201  93.9393 15.70858289 47737
Epoch: 2026-04-05T13:35Z
TLE epoch observation values (Epoch: 2026-04-05T13:35:01.817Z)
Latitude
-0.00004°
Longitude
-115.4789°
Altitude
356.325 km
Speed
7.697 km/s
True Right ascension
18h 48m 35s
True Declination
0° 00' 00"
Sunlit
Object was in daylight at epoch
Visualization orbit readout
Latitude
Unknown
Longitude
Unknown
Altitude
Unknown
Speed
Unknown
Apparent Right ascension
Unknown
Apparent Declination
Unknown
Sunlit
N/A
Visualization observer readout
Local Sidereal Time
02:28:01
Azimuth
Unknown
Elevation
Unknown
Doppler factor
Unknown
Orbital elements
Apogee altitude
360.036 km
Perigee altitude
356.813 km
Semi-major axis
6,736.561 km
Eccentricity
0.00024
Inclination
43.0002°
RAAN
282.1483°
Arg. of periapsis
266.1201°
True anomaly
93.96664°
Mean anomaly
93.9393°
Eccentric anomaly
93.95297°
Mean motion
3.92542 °/min
Orbital period
91.71 mins
BSTAR
0.00060772
Loading maneuver chart data...
Computing Atmospheric mass density...
Loading historical data...
Loading historical data...
Loading historical data...
Loading historical data...
Loading historical data...
Loading historical data...
Loading historical data...

Documentation

Showing up to 5 results
|